Location: B�hl
(48.6968°N, 8.1352°E)
Time: 03:02:21
(UTC+00:00)

Cosmos 1842 - Pass Details

Date: 08 March 2021
Orbit: 519 x 537 km, 82.5° (Epoch: 12 April)

Event Time Altitude Azimuth Distance (km) Brightness Sun altitude
Rises 19:39:39 0° 351° (N) 2,696 7.2 -23.1°
Reaches altitude 10° 19:41:50 10° 353° (N) 1,797 6.3 -23.4°
Enters shadow 19:44:36 43° 5° (N) 755 4.0 -23.9°
